Tracking 29090 objects as of 15-Jul-2024
HD Live streaming from Space Station
objects crossing your sky now

IRIDIUM 44

Track IRIDIUM 44 now!
10-day predictions
IRIDIUM 44 is classified as:


NORAD ID: 25078
Int'l Code: 1997-077B
Perigee: 764.7 km
Apogee: 770.1 km
Inclination: 86.4 °
Period: 100.0 minutes
Semi major axis: 7138 km
RCS: 3.743 m2 (large)
Launch date: December 8, 1997
Source: United States (US)
Launch site: Taiyaun Space Center, China (TSC)
Your satellite tracking list
Your tracking list is empty




NASA's NSSDC Master Catalog

Two Line Element Set (TLE):
1 25078U 97077B   24197.85395829  .00000794  00000-0  24869-3 0  9996
2 25078  86.3969   3.2004 0003756  73.3372 286.8239 14.39475958395336
Source of the keplerian elements: AFSPC